Location: Lincoln Park
(32.7042°N, 117.0895°W)
Time: 12:57:39
(UTC+00:00)

Cosmos 2082 - Pass Details

Date: 26 June 2022
Orbit: 834 x 854 km, 71.0° (Epoch: 14 August)

Event Time Altitude Azimuth Distance (km) Brightness Sun altitude
Rises 12:04:08 0° 189° (S) 3,386 6.4 -7.7°
Reaches altitude 10° 12:06:36 10° 186° (S) 2,452 5.7 -7.3°
Maximum altitude 12:12:08 60° 107° (ESE) 952 4.3 -6.3°
Drops below altitude 10° 12:17:39 10° 28° (NNE) 2,453 7.2 -5.3°
Sets 12:20:07 0° 25° (NNE) 3,388 7.9 -4.9°
